Williamsport, PA

9:19 PM EDT on May 23, 2017 (GMT -0400)
Williamsport Rgnl

Weather History for KIPT - May, 2013

Change the Weather History Date:

Friday, May 31, 2013

  Actual Average Record
Temperature  
Mean Temperature 77 °F 64 °F  
Max Temperature 90 °F 76 °F 94 °F (2011)
Min Temperature 63 °F 53 °F 35 °F (1907)
Degree Days  
Heating Degree Days 0 3  
Month to date heating degree days 187 203  
Since 1 July heating degree days 5660 5958  
Cooling Degree Days 12 3  
Month to date cooling degree days 63 38  
Year to date cooling degree days 71 43  
Growing Degree Days 26 (Base 50)    
Moisture  
Dew Point 63 °F    
Average Humidity 65    
Maximum Humidity 93    
Minimum Humidity 37    
Precipitation  
Precipitation 0.00 in 0.12 in 2.53 in (1975)
Month to date precipitation 3.22 3.66  
Year to date precipitation 12.57 14.91  
Snow  
Snow 0.00 in 0.00 in 0.00 in (2002)
Month to date snowfall 0.0 0.0  
Since 1 July snowfall 32.7 36.0  
Snow Depth 0.00 in    
Sea Level Pressure  
Sea Level Pressure 30.05 in    
Wind  
Wind Speed 4 mph (SSE)    
Max Wind Speed 15 mph    
Max Gust Speed 23 mph    
Visibility 8 miles    
Events      
T = Trace of Precipitation, MM = Missing Value Source: NWS Daily Summary

Daily Weather History Graph

Daily Weather History Graph

Search for Another Location

Airport or City:

Trip Planner

Search our weather history database for the weather conditions in past years. The results will help you decide how hot, cold, wet, or windy it might be!

Date:

Astronomy

May. 31, 2013 Rise Set
Actual Time 5:37 AM EDT 8:33 PM EDT
Civil Twilight 5:04 AM EDT 9:06 PM EDT
Nautical Twilight 4:22 AM EDT 9:48 PM EDT
Astronomical Twilight 3:34 AM EDT 10:37 PM EDT
Moon 1:04 AM EDT (5/31) 12:53 PM EDT (5/31)
Length of Visible Light 16h 02m
Length of Day
14h 56m
Waning Gibbous, 51% of the Moon is Illuminated
May 31
Waning Gibbous
May 31
Last Quarter
Jun 8
New
Jun 16
First Quarter
Jun 23
Full

Hourly Weather History & Observations

Time (EDT) Temp. Heat Index Dew Point Humidity Pressure Visibility Wind Dir Wind Speed Gust Speed Precip Events Conditions
12:54 AM 66.9 °F - 64.0 °F 90% 30.11 in 7.0 mi Calm Calm - N/A   Clear
1:54 AM 66.0 °F - 64.0 °F 93% 30.11 in 7.0 mi Calm Calm - N/A   Clear
2:54 AM 66.0 °F - 63.0 °F 90% 30.10 in 7.0 mi Calm Calm - N/A   Clear
3:54 AM 64.9 °F - 63.0 °F 93% 30.10 in 7.0 mi Calm Calm - N/A   Clear
4:54 AM 64.0 °F - 62.1 °F 93% 30.10 in 6.0 mi Calm Calm - N/A   Clear
5:54 AM 63.0 °F - 61.0 °F 93% 30.12 in 4.0 mi Calm Calm - N/A   Clear
6:54 AM 64.9 °F - 62.1 °F 90% 30.13 in 5.0 mi Calm Calm - N/A   Clear
7:54 AM 66.0 °F - 63.0 °F 90% 30.13 in 5.0 mi Calm Calm - N/A   Clear
8:54 AM 70.0 °F - 64.0 °F 81% 30.12 in 7.0 mi Calm Calm - N/A   Clear
9:54 AM 75.0 °F - 64.9 °F 71% 30.11 in 9.0 mi Calm Calm - N/A   Clear
10:54 AM 77.0 °F - 66.9 °F 71% 30.09 in 10.0 mi SE 4.6 mph - N/A   Clear
11:54 AM 82.9 °F 86.5 °F 69.1 °F 63% 30.07 in 10.0 mi ESE 3.5 mph - N/A   Clear
12:54 PM 84.9 °F 87.1 °F 66.0 °F 53% 30.06 in 10.0 mi South 3.5 mph - N/A   Clear
1:54 PM 87.1 °F 89.2 °F 66.0 °F 49% 30.04 in 10.0 mi SE 3.5 mph - N/A   Clear
2:54 PM 88.0 °F 89.3 °F 64.0 °F 45% 30.02 in 10.0 mi SE 8.1 mph - N/A   Clear
3:54 PM 90.0 °F 91.7 °F 64.9 °F 43% 30.00 in 10.0 mi ESE 5.8 mph - N/A   Partly Cloudy
4:54 PM 89.1 °F 89.3 °F 62.1 °F 40% 29.97 in 10.0 mi SSE 9.2 mph 23.0 mph N/A   Clear
5:54 PM 88.0 °F 88.7 °F 63.0 °F 43% 29.96 in 10.0 mi SSE 10.4 mph 18.4 mph N/A   Scattered Clouds
6:54 PM 87.1 °F 87.8 °F 63.0 °F 44% 29.96 in 10.0 mi South 4.6 mph - N/A   Clear
7:54 PM 84.0 °F 83.8 °F 59.0 °F 43% 29.97 in 10.0 mi South 6.9 mph - N/A   Clear
8:54 PM 82.9 °F 82.1 °F 55.9 °F 39% 29.96 in 10.0 mi SSW 12.7 mph 18.4 mph N/A   Clear
9:54 PM 82.9 °F 81.9 °F 54.0 °F 37% 29.98 in 10.0 mi South 11.5 mph - N/A   Clear
10:54 PM 72.0 °F - 62.1 °F 71% 29.99 in 10.0 mi North 4.6 mph - N/A   Clear
11:54 PM 70.0 °F - 61.0 °F 73% 29.98 in 10.0 mi Calm Calm - N/A   Clear